This is the latest recevied weather packets stored in our database for station/object F6BIJ-13. If no packets are shown the sender has not sent any weather packets the latest 10 day(s).
| Time | Temp. | Humidity | Pressure | Rain* | Wind** | Luminosity | Snow |
|---|---|---|---|---|---|---|---|
| 1777287637 | 21.67° C | 38% | 1019.3 hPa | 0 mm | - | - | - |
| 1777287277 | 21.67° C | 42% | 1019.4 hPa | 0 mm | - | - | - |
| 1777286916 | 21.67° C | 39% | 1019.4 hPa | 0 mm | - | - | - |
| 1777286557 | 21.67° C | 39% | 1019.5 hPa | 0 mm | - | - | - |
| 1777286197 | 22.22° C | 37% | 1019.5 hPa | 0 mm | - | - | - |
| 1777285837 | 22.22° C | 36% | 1019.5 hPa | 0 mm | - | - | - |
| 1777285477 | 21.67° C | 38% | 1019.6 hPa | 0 mm | - | - | - |
| 1777285117 | 20.56° C | 40% | 1019.7 hPa | 0 mm | - | - | - |
| 1777284757 | 20.56° C | 38% | 1019.7 hPa | 0 mm | - | - | - |
| 1777284397 | 21.67° C | 42% | 1019.7 hPa | 0 mm | - | - | - |
| 1777282597 | 19.44° C | 46% | 1020 hPa | 0 mm | - | - | - |
| 1777282237 | 20.56° C | 42% | 1020 hPa | 0 mm | - | - | - |
| 1777281877 | 22.22° C | 45% | 1020 hPa | 0 mm | - | - | - |
| 1777281517 | 20.56° C | 42% | 1020.1 hPa | 0 mm | - | - | - |
| 1777281157 | 20.56° C | 41% | 1020.1 hPa | 0 mm | - | - | - |
| 1777280797 | 20.56° C | 47% | 1020.2 hPa | 0 mm | - | - | - |
| 1777280077 | 20° C | 46% | 1020.3 hPa | 0 mm | - | - | - |
| 1777279357 | 18.89° C | 50% | 1020.2 hPa | 0 mm | - | - | - |
| 1777278996 | 17.78° C | 49% | 1020.4 hPa | 0 mm | - | - | - |
| 1777278637 | 18.89° C | 52% | 1020.4 hPa | 0 mm | - | - | - |
| 1777278277 | 17.78° C | 52% | 1020.3 hPa | 0 mm | - | - | - |
| 1777277917 | 18.33° C | 49% | 1020.4 hPa | 0 mm | - | - | - |
| 1777277557 | 17.78° C | 54% | 1020.5 hPa | 0 mm | - | - | - |
| 1777277196 | 17.78° C | 53% | 1020.5 hPa | 0 mm | - | - | - |
| 1777276837 | 17.78° C | 56% | 1020.6 hPa | 0 mm | - | - | - |
* Rain latest 24 hours (hover to see other rain measurements)
** Current wind speed in m/s (hover to see current wind gust speed)